• In Russia
  • List of Countries
  • For 7 days
  • Water Temperature
  • Satellite Maps
  • Weather Map
  • Weather Widgets
  • user-avatar
    Login

    Hourly Weather Dahab

    Today, 21 March, Thursday

    Time Temperature Precipitation Wind Pressure Humidity
    00:00 +20°C° 0 mm 2 mps 712 mmHg 39%
    01:00 +20°C° 0 mm 3 mps 712 mmHg 40%
    02:00 +19°C° 0 mm 3 mps 712 mmHg 42%
    03:00 +19°C° 0 mm 3 mps 712 mmHg 43%
    04:00 +18°C° 0 mm 3 mps 712 mmHg 43%
    05:00 +18°C° 0 mm 3 mps 712 mmHg 43%
    06:00 +19°C° 0 mm 3 mps 712 mmHg 39%
    07:00 +20°C° 0 mm 3 mps 712 mmHg 34%
    08:00 +21°C° 0 mm 3 mps 713 mmHg 30%
    09:00 +22°C° 0 mm 3 mps 713 mmHg 28%
    10:00 +24°C° 0 mm 3 mps 713 mmHg 25%
    11:00 +25°C° 0 mm 3 mps 713 mmHg 22%
    12:00 +26°C° 0 mm 3 mps 713 mmHg 22%
    13:00 +26°C° 0 mm 4 mps 713 mmHg 22%
    14:00 +27°C° 0 mm 4 mps 712 mmHg 22%
    15:00 +26°C° 0 mm 3 mps 712 mmHg 22%
    16:00 +26°C° 0 mm 3 mps 712 mmHg 23%
    17:00 +25°C° 0 mm 3 mps 712 mmHg 23%
    18:00 +25°C° 0 mm 3 mps 712 mmHg 25%
    19:00 +23°C° 0 mm 4 mps 713 mmHg 27%
    20:00 +22°C° 0 mm 4 mps 713 mmHg 28%
    21:00 +21°C° 0 mm 4 mps 713 mmHg 29%
    22:00 +21°C° 0 mm 4 mps 713 mmHg 29%
    23:00 +20°C° 0 mm 4 mps 713 mmHg 30%

    Tomorrow, 22 March, Friday

    Time Temperature Precipitation Wind Pressure Humidity
    00:00 +19°C° 0 mm 4 mps 713 mmHg 31%
    01:00 +19°C° 0 mm 4 mps 713 mmHg 32%
    02:00 +18°C° 0 mm 4 mps 713 mmHg 32%
    03:00 +18°C° 0 mm 4 mps 713 mmHg 31%
    04:00 +17°C° 0 mm 4 mps 713 mmHg 29%
    05:00 +17°C° 0 mm 4 mps 713 mmHg 27%
    06:00 +18°C° 0 mm 4 mps 714 mmHg 23%
    07:00 +19°C° 0 mm 4 mps 714 mmHg 19%
    08:00 +20°C° 0 mm 4 mps 714 mmHg 14%
    09:00 +21°C° 0 mm 4 mps 714 mmHg 14%
    10:00 +22°C° 0 mm 4 mps 714 mmHg 13%
    11:00 +25°C° 0 mm 4 mps 714 mmHg 13%
    12:00 +25°C° 0 mm 4 mps 714 mmHg 13%
    13:00 +25°C° 0 mm 4 mps 713 mmHg 13%
    14:00 +26°C° 0 mm 4 mps 713 mmHg 14%
    15:00 +26°C° 0 mm 4 mps 713 mmHg 15%
    16:00 +25°C° 0 mm 3 mps 712 mmHg 16%
    17:00 +25°C° 0 mm 3 mps 712 mmHg 17%
    18:00 +24°C° 0 mm 3 mps 712 mmHg 20%
    19:00 +22°C° 0 mm 3 mps 713 mmHg 22%
    20:00 +21°C° 0 mm 3 mps 713 mmHg 24%
    21:00 +21°C° 0 mm 3 mps 713 mmHg 25%
    22:00 +20°C° 0 mm 3 mps 713 mmHg 26%
    23:00 +20°C° 0 mm 2 mps 713 mmHg 27%

    Day after tomorrow, 23 March, Saturday

    Time Temperature Precipitation Wind Pressure Humidity
    00:00 +19°C° 0 mm 2 mps 713 mmHg 29%
    01:00 +19°C° 0 mm 2 mps 712 mmHg 30%
    02:00 +18°C° 0 mm 2 mps 712 mmHg 31%
    03:00 +18°C° 0 mm 2 mps 712 mmHg 31%
    04:00 +18°C° 0 mm 3 mps 711 mmHg 31%
    05:00 +18°C° 0 mm 3 mps 711 mmHg 31%
    06:00 +19°C° 0 mm 3 mps 712 mmHg 29%
    07:00 +20°C° 0 mm 3 mps 712 mmHg 27%
    08:00 +21°C° 0 mm 3 mps 712 mmHg 25%
    09:00 +21°C° 0 mm 3 mps 712 mmHg 24%
    10:00 +23°C° 0 mm 2 mps 712 mmHg 23%
    11:00 +24°C° 0 mm 2 mps 712 mmHg 22%
    12:00 +24°C° 0 mm 2 mps 712 mmHg 21%
    13:00 +25°C° 0 mm 2 mps 711 mmHg 20%
    14:00 +25°C° 0 mm 2 mps 711 mmHg 19%
    15:00 +25°C° 0 mm 2 mps 711 mmHg 19%
    16:00 +25°C° 0 mm 2 mps 711 mmHg 18%
    17:00 +25°C° 0 mm 2 mps 710 mmHg 18%
    18:00 +24°C° 0 mm 2 mps 711 mmHg 19%
    19:00 +23°C° 0 mm 1 mps 711 mmHg 21%
    20:00 +22°C° 0 mm 1 mps 711 mmHg 22%
    21:00 +21°C° 0 mm 1 mps 711 mmHg 23%
    22:00 +21°C° 0 mm 1 mps 711 mmHg 24%
    23:00 +20°C° 0 mm 2 mps 711 mmHg 25%

    24 March, Sunday

    Time Temperature Precipitation Wind Pressure Humidity
    00:00 +19°C° 0 mm 2 mps 710 mmHg 27%
    01:00 +19°C° 0 mm 2 mps 709 mmHg 29%
    02:00 +18°C° 0 mm 2 mps 709 mmHg 32%
    03:00 +18°C° 0 mm 2 mps 709 mmHg 34%
    04:00 +18°C° 0 mm 2 mps 709 mmHg 36%
    05:00 +17°C° 0 mm 2 mps 709 mmHg 39%
    06:00 +18°C° 0 mm 2 mps 709 mmHg 36%
    07:00 +20°C° 0 mm 2 mps 709 mmHg 34%
    08:00 +21°C° 0 mm 3 mps 710 mmHg 32%
    09:00 +23°C° 0 mm 2 mps 710 mmHg 30%
    10:00 +24°C° 0 mm 2 mps 709 mmHg 28%
    11:00 +25°C° 0 mm 2 mps 709 mmHg 26%
    12:00 +25°C° 0 mm 2 mps 709 mmHg 25%
    13:00 +26°C° 0 mm 3 mps 708 mmHg 24%
    14:00 +27°C° 0 mm 3 mps 707 mmHg 22%
    15:00 +26°C° 0 mm 3 mps 707 mmHg 23%
    16:00 +26°C° 0 mm 2 mps 707 mmHg 23%
    17:00 +26°C° 0 mm 2 mps 707 mmHg 23%
    18:00 +25°C° 0 mm 3 mps 707 mmHg 24%
    19:00 +24°C° 0 mm 3 mps 707 mmHg 25%
    20:00 +22°C° 0 mm 3 mps 707 mmHg 26%
    21:00 +21°C° 0 mm 4 mps 708 mmHg 26%
    22:00 +20°C° 0 mm 4 mps 708 mmHg 27%
    23:00 +20°C° 0 mm 4 mps 708 mmHg 28%

    25 March, Monday

    Time Temperature Precipitation Wind Pressure Humidity
    00:00 +19°C° 0 mm 4 mps 708 mmHg 31%
    01:00 +18°C° 0 mm 4 mps 707 mmHg 34%
    02:00 +17°C° 0 mm 4 mps 707 mmHg 36%
    03:00 +17°C° 0 mm 4 mps 707 mmHg 36%
    04:00 +15°C° 0 mm 4 mps 708 mmHg 36%
    05:00 +15°C° 0 mm 5 mps 708 mmHg 36%
    06:00 +15°C° 0 mm 5 mps 708 mmHg 35%
    07:00 +16°C° 0 mm 5 mps 709 mmHg 34%
    08:00 +16°C° 0 mm 5 mps 709 mmHg 33%
    09:00 +17°C° 0 mm 5 mps 710 mmHg 31%
    10:00 +19°C° 0 mm 6 mps 710 mmHg 28%
    11:00 +20°C° 0 mm 6 mps 710 mmHg 26%
    12:00 +20°C° 0 mm 6 mps 710 mmHg 25%
    13:00 +21°C° 0 mm 6 mps 709 mmHg 25%
    14:00 +22°C° 0 mm 6 mps 709 mmHg 24%
    15:00 +21°C° 0 mm 6 mps 709 mmHg 26%
    16:00 +21°C° 0 mm 6 mps 709 mmHg 27%
    17:00 +20°C° 0 mm 5 mps 709 mmHg 28%
    18:00 +19°C° 0 mm 5 mps 710 mmHg 31%
    19:00 +19°C° 0 mm 4 mps 710 mmHg 33%
    20:00 +18°C° 0 mm 4 mps 711 mmHg 35%
    21:00 +17°C° 0 mm 4 mps 711 mmHg 35%
    22:00 +17°C° 0 mm 4 mps 711 mmHg 35%
    23:00 +15°C° 0 mm 4 mps 711 mmHg 35%

    26 March, Tuesday

    Time Temperature Precipitation Wind Pressure Humidity
    00:00 +15°C° 0 mm 4 mps 711 mmHg 35%
    01:00 +15°C° 0 mm 4 mps 711 mmHg 36%
    02:00 +14°C° 0 mm 4 mps 711 mmHg 36%
    03:00 +14°C° 0 mm 3 mps 711 mmHg 38%
    04:00 +14°C° 0 mm 3 mps 711 mmHg 39%
    05:00 +13°C° 0 mm 3 mps 711 mmHg 41%
    06:00 +14°C° 0 mm 3 mps 712 mmHg 39%
    07:00 +16°C° 0 mm 2 mps 712 mmHg 37%
    08:00 +17°C° 0 mm 2 mps 713 mmHg 35%
    09:00 +18°C° 0 mm 2 mps 713 mmHg 33%
    10:00 +19°C° 0 mm 2 mps 713 mmHg 30%
    11:00 +20°C° 0 mm 2 mps 713 mmHg 27%
    12:00 +20°C° 0 mm 2 mps 713 mmHg 26%
    13:00 +21°C° 0 mm 2 mps 712 mmHg 25%
    14:00 +21°C° 0 mm 2 mps 712 mmHg 23%
    15:00 +21°C° 0 mm 2 mps 712 mmHg 23%
    16:00 +21°C° 0 mm 2 mps 712 mmHg 23%
    17:00 +21°C° 0 mm 2 mps 712 mmHg 23%
    18:00 +20°C° 0 mm 2 mps 713 mmHg 24%
    19:00 +21°C° 0 mm 1 mps 713 mmHg 26%
    20:00 +20°C° 0 mm 1 mps 713 mmHg 27%
    21:00 +19°C° 0 mm 1 mps 713 mmHg 27%
    22:00 +19°C° 0 mm 1 mps 713 mmHg 27%
    23:00 +18°C° 0 mm 1 mps 714 mmHg 27%
    Show more